Regional Weather Roundup
Issued by NWS

Home | Current Version | Previous Version | Graphics & Text | Print | Product List | Glossary On
Versions: 1 2 3 4 5 6 7 8 9 10 11 12 13 14 15 16 17 18 19 20 21 22 23 24 25 26 27 28 29 30 31 32 33 34 35 36 37 38 39 40 41 42 43 44 45 46 47 48 49 50
000
ASUS44 KLIX 211510
RWRLA
LOUISIANA WEATHER ROUNDUP
NATIONAL WEATHER SERVICE NEW ORLEANS LA
1000 AM CDT THU OCT 21 2021

NOTE: "FAIR" INDICATES FEW OR NO CLOUDS BELOW 12,000 FEET WITH NO
      SIGNIFICANT WEATHER AND/OR OBSTRUCTIONS TO VISIBILITY.
      SKY/WX - SKY CONDITION AND SIGNIFICANT WEATHER.
      TMP - AIR TEMPERATURE.    DP   - DEWPOINT TEMPERATURE.
      RH  - RELATIVE HUMIDITY.  PRES - PRESSURE.
      HX  - HEAT INDEX.         WCI  - WIND CHILL INDEX.

*  THESE STATIONS ARE NOT NWS OR FAA STATIONS AND ARE NOT UNDER
   NWS QUALITY CONTROL.

LAZ048-061-063-065-066-069-076-077-211600-
SOUTHEAST LOUISIANA

CITY           SKY/WX    TMP DP  RH WIND       PRES   REMARKS
N.O. INTL ARPT PTSUNNY   77  74  90 NW3       30.15R FOG
N.O. DWNTWN HE PTSUNNY   81  74  79 VRB3      30.16R
N.O. LAKEFRONT MOSUNNY   79  73  82 VRB3      30.16R
RESERVE*       CLOUDY    75  74  98 CALM      30.16S FOG
SLIDELL        PTSUNNY   81  73  76 CALM      30.15R
BATON ROUGE    CLOUDY    72  72 100 CALM      30.16S FOG
BOOTHVILLE*    SUNNY     86  73  64 MISG      30.15S
BELLE CHASSE*  PTSUNNY   82  75  79 W5        30.15R
BOGALUSA*      CLOUDY    76  73  92 CALM      30.17S
GALLIANO*      NOT AVBL
NEW ROADS*     LGT RAIN  72  72 100 CALM      30.17R
GONZALES*      FOG       76  75  98 CALM      30.15S VSB 1/2
HAMMOND*       NOT AVBL
HOUMA*         MOSUNNY   81  75  83 CALM      30.15R

$$

LAZ041-044-053-054-211600-
SOUTHWEST LOUISIANA

CITY           SKY/WX    TMP DP  RH WIND       PRES   REMARKS
LAKE CHARLES   CLOUDY    74  73  97 NE5       30.16R FOG
LAFAYETTE      CLOUDY    74  74 100 MISG      30.16R FOG
PATTERSON        N/A     76  76 100 MISG        N/A
SALT POINT     NOT AVBL
NEW IBERIA     CLOUDY    76  75  97 NW3       30.16R
CHENAULT AIRPK CLOUDY    73  72  94 CALM      30.16R

$$

LAZ027-028-211600-
CENTRAL LOUISIANA

CITY           SKY/WX    TMP DP  RH WIND       PRES   REMARKS
FORT POLK      PTSUNNY   74  74  99 CALM      30.16R
ALEXANDRIA INT CLOUDY    72  70  93 S3        30.15R FOG
ALEXANDRIA     CLOUDY    71  70  96 CALM      30.16R FOG

$$

LAZ001-002-211600-
NORTHWEST LOUISIANA

CITY           SKY/WX    TMP DP  RH WIND       PRES   REMARKS
SHREVEPORT     SUNNY     78  64  61 NW8       30.15R
BARKSDALE AFB  SUNNY     76  65  69 W7        30.15R
DTN SHREVEPORT SUNNY     75  67  76 N7        30.16R

$$

LAZ014-016-211600-
NORTHEAST LOUISIANA

CITY           SKY/WX    TMP DP  RH WIND       PRES   REMARKS
MONROE         PTSUNNY   71  71 100 SW3       30.15S
TALLULAH       CLOUDY    73  71  93 CALM      30.16R FOG

$$




USA.gov is the U.S. government's official web portal to all federal, state and local government web resources and services.